Regional Weather Roundup
Issued by NWS Little Rock, AR

Home | Current Version | Previous Version | Text Only | Print | Product List | Glossary Off
Versions: 1 2 3 4 5 6 7 8 9 10 11 12 13 14 15 16 17 18 19 20 21 22 23 24 25 26 27 28 29 30 31 32 33 34 35 36 37 38 39 40 41 42 43 44 45 46 47 48 49

000
ASUS44 KLZK 240205
RWRLZK

WEATHER ROUNDUP FOR ARKANSAS
NATIONAL WEATHER SERVICE LITTLE ROCK AR
900 PM CDT WED JUL 23 2014

NOTE: "FAIR" INDICATES FEW OR NO CLOUDS BELOW 12,000 FEET WITH NO
SIGNIFICANT WEATHER AND/OR OBSTRUCTIONS TO VISIBILITY.

ARZ001-003-010-029-240300-
NORTHWEST ARKANSAS

CITY           SKY/WX    TMP DP  RH WIND       PRES   REMARKS
FAYETTEVILLE   MOCLDY    72  67  84 S7        30.09R
FORT SMITH     CLOUDY    73  69  87 E3        30.07R
BENTONVILLE    PTCLDY    75  64  69 SW5       30.09S
ROGERS         PTCLDY    76  67  73 CALM      30.09S
SILOAM SPGS    MOCLDY    73  63  68 SW8       30.10R
HIGHFILL       PTCLDY    75  67  76 SW5       30.08S
SPRINGDALE     PTCLDY    75  66  73 S7        30.10S
$$

ARZ004-005-016-240300-
NORTH CENTRAL ARKANSAS

CITY           SKY/WX    TMP DP  RH WIND       PRES   REMARKS
BATESVILLE     CLOUDY    70  68  94 CALM      30.03F
FLIPPIN        PTCLDY    72  70  94 CALM      30.07R
MTN HOME       PTCLDY    70  69  97 CALM      30.06R
$$

ARZ040-041-240300-
WEST CENTRAL ARKANSAS

CITY           SKY/WX    TMP DP  RH WIND       PRES   REMARKS
MENA           CLOUDY    72  70  94 CALM      30.08F
MOUNT IDA        N/A     70  68  93 VRB5      30.02F
$$

ARZ009-017-025-026-028-240300-
NORTHEAST ARKANSAS

CITY           SKY/WX    TMP DP  RH WIND       PRES   REMARKS
CORNING        MOCLDY    73  72  94 NW8       30.04S
JONESBORO      MOCLDY    71  67  87 NW7       30.02S
NEWPORT        CLOUDY    71  69  93 W14       30.03F
WALNUT RIDGE   MOCLDY    72  66  83 NW8       30.01F
BLYTHEVILLE    MOCLDY    72  70  93 CALM      30.04R
$$

ARZ022-023-033-042-044-240300-
CENTRAL ARKANSAS

CITY           SKY/WX    TMP DP  RH WIND       PRES   REMARKS
LITTLE ROCK    CLOUDY    72  69  90 W8        30.01F
N LITTLE ROCK  MOCLDY    70  70  99 W5        30.01F
RUSSELLVILLE   CLOUDY    73  70  90 N5        30.04S
CLINTON        FAIR      72  72 100 CALM      30.05F FOG
$$

ARZ036-240300-
EAST ARKANSAS

CITY           SKY/WX    TMP DP  RH WIND       PRES   REMARKS
WEST MEMPHIS   CLOUDY    74  73  97 N7        30.01R
$$

ARZ050-053-066-070-073-240300-
SOUTHWEST ARKANSAS

CITY           SKY/WX    TMP DP  RH WIND       PRES   REMARKS
ARKADELPHIA    LGT RAIN  71  71 100 VRB5      30.02F
CAMDEN         LGT RAIN  70  66  88 CALM      30.02F
TEXARKANA      LGT RAIN  70  68  93 E3        30.10F
EL DORADO      CLOUDY    70  69  97 N3        30.05F
$$

ARZ056-057-069-240300-
SOUTHEAST ARKANSAS

CITY           SKY/WX    TMP DP  RH WIND       PRES   REMARKS
PINE BLUFF     CLOUDY    71  69  93 W9        29.98F
STUTTGART      CLOUDY    73  70  88 NW8       30.01R
MONTICELLO     CLOUDY    73  68  84 W8        30.02F

$$




USA.gov is the U.S. government's official web portal to all federal, state and local government web resources and services.